Grand Forks, ND

12:14 AM CDT on June 25, 2017 (GMT -0500)
Grand Forks International

Weather History for KGFK - April, 2014

Change the Weather History Date:

Saturday, April 12, 2014

  Actual Average Record
Temperature  
Mean Temperature 42 °F 40 °F  
Max Temperature 51 °F 52 °F 75 °F (1954)
Min Temperature 32 °F 29 °F 1 °F (1950)
Degree Days  
Heating Degree Days 23 25  
Month to date heating degree days 360 334  
Since 1 July heating degree days 9710 8719  
Cooling Degree Days 0 0  
Month to date cooling degree days 0 0  
Year to date cooling degree days 0 0  
Moisture  
Dew Point 37 °F    
Average Humidity 82    
Maximum Humidity 93    
Minimum Humidity 70    
Precipitation  
Precipitation 0.07 in 0.03 in 1.87 in (1972)
Month to date precipitation 0.21 0.34  
Year to date precipitation 2.21 2.37  
Snow  
Snow 0.00 in 0.10 in 8.00 in (1972)
Month to date snowfall 1.1 1.4  
Since 1 July snowfall 60.3 45.8  
Snow Depth 0.00 in    
Sea Level Pressure  
Sea Level Pressure 29.78 in    
Wind  
Wind Speed 12 mph (NNE)    
Max Wind Speed 24 mph    
Max Gust Speed 30 mph    
Visibility 10 miles    
Events Rain    
T = Trace of Precipitation, MM = Missing Value Source: NWS Daily Summary

Daily Weather History Graph

Daily Weather History Graph

Search for Another Location

Airport or City:

Trip Planner

Search our weather history database for the weather conditions in past years. The results will help you decide how hot, cold, wet, or windy it might be!

Date:

Astronomy

Apr. 12, 2014 Rise Set
Actual Time 6:45 AM CDT 8:14 PM CDT
Civil Twilight 6:12 AM CDT 8:47 PM CDT
Nautical Twilight 5:33 AM CDT 9:26 PM CDT
Astronomical Twilight 4:51 AM CDT 10:09 PM CDT
Moon 5:44 PM CDT (4/12) 5:24 AM CDT (4/12)
Length of Visible Light 14h 34m
Length of Day
13h 29m
Waxing Gibbous, 93% of the Moon is Illuminated
Apr 12
Waxing Gibbous
Apr 15
Full
Apr 22
Last Quarter
Apr 29
New
May 6
First Quarter

Hourly Weather History & Observations

Time (CDT) Temp. Windchill Dew Point Humidity Pressure Visibility Wind Dir Wind Speed Gust Speed Precip Events Conditions
12:53 AM 36.0 °F 30.3 °F 30.0 °F 79% 29.94 in 10.0 mi North 6.9 mph - N/A   Overcast
1:53 AM 36.0 °F 29.6 °F 30.9 °F 82% 29.92 in 10.0 mi NNE 8.1 mph - 0.00 in   Overcast
2:53 AM 37.0 °F 31.0 °F 30.9 °F 79% 29.88 in 10.0 mi ENE 8.1 mph - 0.00 in Rain Light Rain
3:53 AM 37.0 °F 29.3 °F 30.0 °F 76% 29.86 in 10.0 mi East 11.5 mph - 0.00 in   Overcast
4:34 AM 37.4 °F 28.2 °F 28.4 °F 70% 29.82 in 10.0 mi East 16.1 mph - N/A   Overcast
4:53 AM 37.9 °F 28.9 °F 28.0 °F 68% 29.83 in 10.0 mi ESE 16.1 mph - N/A   Overcast
5:53 AM 37.9 °F 31.5 °F 28.9 °F 70% 29.83 in 10.0 mi East 9.2 mph - N/A   Overcast
6:53 AM 36.0 °F 27.5 °F 30.9 °F 82% 29.80 in 10.0 mi East 12.7 mph - 0.02 in Rain Light Rain
7:53 AM 37.0 °F 28.5 °F 32.0 °F 82% 29.78 in 10.0 mi ESE 13.8 mph - 0.00 in   Mostly Cloudy
8:53 AM 39.0 °F 31.4 °F 34.0 °F 82% 29.78 in 10.0 mi ESE 12.7 mph - N/A   Mostly Cloudy
9:53 AM 43.0 °F 35.4 °F 36.0 °F 76% 29.75 in 10.0 mi ESE 16.1 mph - 0.00 in   Scattered Clouds
10:53 AM 45.0 °F 40.1 °F 37.9 °F 76% 29.78 in 10.0 mi SSE 9.2 mph - N/A   Mostly Cloudy
11:53 AM 46.0 °F 41.0 °F 39.9 °F 79% 29.76 in 10.0 mi SSE 10.4 mph - 0.00 in Rain Light Rain
12:53 PM 46.9 °F - 42.1 °F 83% 29.73 in 10.0 mi SE 9.2 mph - 0.01 in   Overcast
1:23 PM 48.2 °F - 42.8 °F 82% 29.71 in 10.0 mi WSW 3.5 mph - N/A   Overcast
1:53 PM 46.9 °F - 43.0 °F 86% 29.73 in 10.0 mi NW 4.6 mph - 0.00 in Rain Light Rain
2:24 PM 46.4 °F 41.9 °F 42.8 °F 87% 29.67 in 10.0 mi East 9.2 mph - 0.02 in Rain Light Rain
2:53 PM 50.0 °F - 46.9 °F 89% 29.68 in 10.0 mi ESE 11.5 mph - 0.04 in Rain Light Rain
3:26 PM 51.8 °F - 44.6 °F 76% 29.68 in 10.0 mi Calm Calm - 0.00 in   Overcast
3:53 PM 48.0 °F - 45.0 °F 89% 29.71 in 10.0 mi North 6.9 mph - 0.00 in   Overcast
4:08 PM 48.2 °F - 44.6 °F 87% 29.68 in 10.0 mi North 5.8 mph - N/A   Overcast
4:53 PM 46.9 °F - 44.1 °F 90% 29.71 in 10.0 mi North 6.9 mph - N/A   Overcast
5:46 PM 44.6 °F 39.7 °F 42.8 °F 93% 29.71 in 9.0 mi NNW 9.2 mph - N/A   Overcast
5:53 PM 45.0 °F 40.1 °F 43.0 °F 93% 29.74 in 9.0 mi NNW 9.2 mph - N/A   Overcast
6:07 PM 44.6 °F 38.4 °F 42.8 °F 93% 29.72 in 10.0 mi North 12.7 mph - N/A   Overcast
6:39 PM 42.8 °F 35.1 °F 39.2 °F 87% 29.74 in 7.0 mi NNW 16.1 mph 24.2 mph N/A   Overcast
6:53 PM 41.0 °F 33.5 °F 39.0 °F 93% 29.77 in 6.0 mi NNW 13.8 mph - N/A   Overcast
7:50 PM 39.2 °F 32.0 °F 37.4 °F 93% 29.77 in 10.0 mi NW 11.5 mph - N/A   Overcast
7:53 PM 39.9 °F 32.9 °F 37.9 °F 93% 29.81 in 10.0 mi NW 11.5 mph - N/A   Overcast
8:07 PM 39.2 °F 31.6 °F 37.4 °F 93% 29.78 in 10.0 mi NNW 12.7 mph - N/A   Overcast
8:34 PM 39.2 °F 31.2 °F 35.6 °F 87% 29.79 in 10.0 mi NNW 13.8 mph - N/A   Overcast
8:53 PM 39.0 °F 32.3 °F 36.0 °F 89% 29.83 in 10.0 mi NNW 10.4 mph - N/A   Overcast
9:53 PM 37.0 °F 29.3 °F 34.0 °F 89% 29.86 in 10.0 mi North 11.5 mph - N/A   Overcast
10:21 PM 35.6 °F 25.2 °F 33.8 °F 93% 29.84 in 10.0 mi North 18.4 mph - N/A   Overcast
10:53 PM 35.1 °F 25.9 °F 32.0 °F 89% 29.88 in 10.0 mi NNW 13.8 mph - N/A   Overcast
11:53 PM 33.1 °F 22.2 °F 30.0 °F 89% 29.90 in 10.0 mi NW 17.3 mph 24.2 mph N/A   Overcast